Date,TemperatureHighF,TemperatureAvgF,TemperatureLowF,DewpointHighF,DewpointAvgF,DewpointLowF,HumidityHigh,HumidityAvg,HumidityLow,PressureMaxIn,PressureMinIn,WindSpeedMaxMPH,WindSpeedAvgMPH,GustSpeedMaxMPH,PrecipitationSumIn
2013-4-1,86.0,71.2,58.0,70.0,64.0,56.0,96,80,51,30.04,29.96,9,1,14,0.00
2013-4-2,87.0,72.9,61.0,69.0,64.8,59.0,96,78,49,30.08,29.99,3,1,10,0.00
2013-4-3,90.0,74.7,62.0,71.0,66.1,60.0,95,77,49,30.06,29.93,5,1,12,0.00
2013-4-4,84.0,71.7,66.0,74.0,67.6,63.0,94,87,71,30.02,29.87,5,1,11,0.60
2013-4-5,72.0,67.6,61.0,69.0,64.6,57.0,95,90,79,30.00,29.80,3,1,12,0.76
2013-4-6,79.0,67.1,59.0,64.0,59.3,56.0,93,78,53,30.08,29.94,6,1,8,0.01
2013-4-7,86.0,70.6,57.0,67.0,61.1,55.0,95,75,44,30.11,30.01,4,0,10,0.00
2013-4-8,87.0,74.1,60.0,68.0,62.4,57.0,94,69,43,30.10,30.00,7,1,8,0.00
2013-4-9,88.0,73.1,58.0,69.0,63.3,56.0,95,73,47,30.11,30.03,6,1,9,0.00
2013-4-10,88.0,73.2,63.0,74.0,68.1,61.0,95,85,60,30.09,29.94,8,1,11,0.72
2013-4-11,86.0,76.9,70.0,76.0,71.5,68.0,95,84,67,29.98,29.84,6,1,14,0.18
2013-4-12,90.0,79.7,74.0,76.0,73.1,71.0,95,82,57,29.93,29.85,10,1,10,0.02
2013-4-13,91.0,80.4,72.0,74.0,71.6,68.0,92,76,55,29.96,29.83,3,0,9,0.01
2013-4-14,90.0,78.3,67.0,77.0,71.3,65.0,95,80,59,29.95,29.83,6,1,10,0.00
2013-4-15,94.0,79.5,67.0,77.0,71.0,64.0,93,77,53,30.05,29.91,8,1,9,0.01
2013-4-16,92.0,79.0,68.0,75.0,70.7,66.0,94,78,51,30.10,29.99,6,1,10,0.01
2013-4-17,88.0,77.7,69.0,73.0,69.1,66.0,93,76,55,30.10,29.98,6,1,10,0.00
2013-4-18,91.0,78.9,68.0,75.0,69.5,65.0,91,74,52,30.03,29.92,6,1,8,0.00
2013-4-19,92.0,79.6,70.0,75.0,71.5,67.0,94,78,54,30.01,29.92,4,1,12,0.01
2013-4-20,92.0,78.4,67.0,77.0,70.7,65.0,95,79,52,30.08,29.93,4,1,10,0.01
2013-4-21,89.0,72.8,67.0,74.0,68.6,65.0,93,87,60,30.09,29.96,3,0,12,0.32
2013-4-22,87.0,74.6,68.0,74.0,69.4,66.0,94,85,58,30.05,29.91,4,0,10,0.08
2013-4-23,87.0,75.2,66.0,70.0,66.4,63.0,93,76,50,30.07,29.96,6,1,11,0.01
2013-4-24,88.0,74.0,59.0,69.0,64.0,57.0,95,73,47,30.11,30.03,4,1,9,0.01
2013-4-25,89.0,74.4,61.0,67.0,61.5,55.0,95,69,34,30.18,30.06,5,1,10,0.00
2013-4-26,88.0,74.9,59.0,66.0,62.9,57.0,93,69,48,30.21,30.11,5,1,11,0.00
2013-4-27,88.0,74.3,60.0,66.0,62.2,58.0,95,69,44,30.19,30.04,7,1,10,0.00
2013-4-28,89.0,75.4,64.0,71.0,64.5,-99.9,91,74,46,30.09,29.95,7,1,10,0.00
2013-4-29,90.0,72.4,62.0,72.0,66.1,59.0,93,82,51,30.01,29.91,3,0,8,0.32
2013-4-30,88.0,75.2,65.0,75.0,68.9,63.0,95,82,59,29.97,29.89,7,0,10,0.02